Date String (YYYY-MM-DD hh:mm:ss) UTC,Instrument flags,Ambient pressure (hPa),Sample flow (lpm),Bypass flow (lpm),Sample temperature (°C),Ambient temperature (°C),ASC tube jacket temperature (°C),LED temperature (°C),Box temperature (°C),Sample RH (%),Span deviation,Mass concentration (μg/m³),Mass concentration (μg/m³),Mass concentration (μg/m³)
DateTimeUTC,F1_M11,P_M11,Q1_M11,Q2_M11,T1_M11,T2_M11,T3_M11,T4_M11,T5_M11,U1_M11,ZSPAN_M11,X0_M11,X2_M11,X1_M11
2021-12-12 00:00:00,,0820.4,5.00,0.00,22.0,21.1,00.0,31.2,23.5,07.1,0000.0,0004.56,0001.83,0001.21
2021-12-12 00:01:00,,0820.5,5.00,0.00,22.0,21.1,00.0,31.2,23.5,07.1,0000.0,0004.78,0001.87,0001.23
2021-12-12 00:02:00,,0820.5,5.00,0.00,22.0,21.0,00.0,31.1,23.5,07.2,0000.0,0004.66,0001.83,0001.23
2021-12-12 00:03:00,,0820.5,4.99,0.00,22.0,21.1,00.0,31.1,23.5,07.3,0000.0,0003.68,0001.80,0001.22
2021-12-12 00:04:00,,0820.6,5.01,0.00,22.0,21.6,00.0,31.2,23.8,07.4,0000.0,0003.44,0001.75,0001.21
2021-12-12 00:05:00,,0820.6,4.99,0.00,22.2,22.5,00.0,31.2,24.1,07.3,0000.0,0003.37,0001.72,0001.18
2021-12-12 00:06:00,,0820.6,5.00,0.00,22.4,23.2,00.0,31.3,24.4,07.2,0000.0,0003.28,0001.68,0001.19
2021-12-12 00:07:00,,0820.6,4.99,0.00,22.4,23.0,00.0,31.3,24.4,07.1,0000.0,0003.37,0001.66,0001.17
2021-12-12 00:08:00,,0820.6,5.00,0.00,22.4,22.7,00.0,31.3,24.3,07.0,0000.0,0003.16,0001.63,0001.15
2021-12-12 00:09:00,,0820.6,5.01,0.00,22.4,22.5,00.0,31.3,24.2,07.0,0000.0,0004.22,0001.60,0001.14
2021-12-12 00:10:00,,0820.5,5.00,0.00,22.4,22.3,00.0,31.3,24.2,07.0,0000.0,0004.13,0001.59,0001.14
2021-12-12 00:11:00,,0820.4,5.00,0.00,22.4,22.2,00.0,31.3,24.1,07.1,0000.0,0004.00,0001.54,0001.13
2021-12-12 00:12:00,,0820.3,5.01,0.00,22.4,22.0,00.0,31.3,24.1,07.4,0000.0,0003.86,0001.50,0001.11
2021-12-12 00:13:00,,0820.4,4.99,0.00,22.4,21.9,00.0,31.4,24.1,07.2,0000.0,0003.92,0001.49,0001.10
2021-12-12 00:14:00,,0820.4,5.00,0.00,22.4,21.8,00.0,31.4,24.1,07.4,0000.0,0004.00,0001.48,0001.10
2021-12-12 00:15:00,,0820.5,5.00,0.00,22.3,21.8,00.0,31.4,24.1,07.6,0000.0,0004.35,0001.49,0001.10
2021-12-12 00:16:00,,0820.5,5.00,0.00,22.3,21.7,00.0,31.4,24.0,07.4,0000.0,0005.12,0001.50,0001.09
2021-12-12 00:17:00,,0820.5,4.99,0.00,22.3,21.7,00.0,31.3,24.0,07.4,0000.0,0006.00,0001.48,0001.09
2021-12-12 00:18:00,,0820.4,5.00,0.00,22.3,21.7,00.0,31.3,24.0,07.4,0000.0,0006.21,0001.45,0001.08
2021-12-12 00:19:00,,0820.3,5.01,0.00,22.3,21.7,00.0,31.3,24.0,07.3,0000.0,0006.31,0001.48,0001.09
2021-12-12 00:20:00,,0820.3,4.99,0.00,22.3,21.6,00.0,31.3,24.0,07.3,0000.0,0005.69,0001.49,0001.10
2021-12-12 00:21:00,,0820.3,5.01,0.00,22.3,21.6,00.0,31.3,23.9,07.3,0000.0,0004.99,0001.48,0001.09
2021-12-12 00:22:00,,0820.3,5.00,0.00,22.3,21.6,00.0,31.3,23.9,07.3,0000.0,0004.95,0001.47,0001.09
2021-12-12 00:23:00,,0820.3,4.99,0.00,22.3,21.6,00.0,31.3,23.8,07.3,0000.0,0004.92,0001.47,0001.09
2021-12-12 00:24:00,,0820.3,5.02,0.00,22.3,21.6,00.0,31.3,23.8,07.3,0000.0,0006.12,0001.45,0001.10
2021-12-12 00:25:00,,0820.2,4.99,0.00,22.2,21.5,00.0,31.3,23.8,07.3,0000.0,0005.83,0001.43,0001.10
2021-12-12 00:26:00,,0820.2,5.01,0.00,22.2,21.5,00.0,31.3,23.8,07.4,0000.0,0005.72,0001.41,0001.10
2021-12-12 00:27:00,,0820.2,5.01,0.00,22.2,21.5,00.0,31.3,23.8,07.4,0000.0,0004.98,0001.39,0001.11
2021-12-12 00:28:00,,0820.2,5.00,0.00,22.2,21.5,00.0,31.3,23.8,07.4,0000.0,0004.05,0001.41,0001.12
2021-12-12 00:29:00,,0820.2,4.99,0.00,22.2,21.5,00.0,31.3,23.8,07.4,0000.0,0003.48,0001.45,0001.12
2021-12-12 00:30:00,,0820.2,5.00,0.00,22.2,21.4,00.0,31.3,23.8,07.4,0000.0,0003.38,0001.45,0001.11
2021-12-12 00:31:00,,0820.0,5.00,0.00,22.2,21.4,00.0,31.3,23.7,07.4,0000.0,0003.33,0001.44,0001.11
2021-12-12 00:32:00,,0820.0,4.98,0.00,22.1,21.4,00.0,31.3,23.8,07.4,0000.0,0003.37,0001.44,0001.12
2021-12-12 00:33:00,,0820.1,5.01,0.00,22.1,21.4,00.0,31.2,23.7,07.6,0000.0,0003.78,0001.46,0001.12
2021-12-12 00:34:00,,0820.2,4.99,0.00,22.1,21.3,00.0,31.2,23.6,07.7,0000.0,0004.75,0001.47,0001.12
2021-12-12 00:35:00,,0820.2,4.99,0.00,22.1,21.3,00.0,31.2,23.6,07.8,0000.0,0003.81,0001.49,0001.10
2021-12-12 00:36:00,,0820.1,5.02,0.00,22.1,21.3,00.0,31.2,23.7,07.8,0000.0,0003.67,0001.50,0001.10
2021-12-12 00:37:00,,0820.2,4.99,0.00,22.1,21.2,00.0,31.2,23.7,07.9,0000.0,0003.63,0001.49,0001.10
2021-12-12 00:38:00,,0820.2,5.00,0.00,22.0,21.1,00.0,31.2,23.7,07.9,0000.0,0003.63,0001.49,0001.09
2021-12-12 00:39:00,,0820.2,5.01,0.00,22.0,21.1,00.0,31.2,23.6,08.0,0000.0,0003.63,0001.50,0001.08
2021-12-12 00:40:00,,0820.2,4.99,0.00,22.0,21.1,00.0,31.1,23.6,07.8,0000.0,0003.60,0001.49,0001.08
2021-12-12 00:41:00,,0820.2,5.01,0.00,22.0,21.1,00.0,31.1,23.6,07.6,0000.0,0003.61,0001.49,0001.08
2021-12-12 00:42:00,,0820.2,5.00,0.00,22.0,21.1,00.0,31.1,23.5,07.6,0000.0,0003.60,0001.48,0001.07
2021-12-12 00:43:00,,0820.2,5.00,0.00,21.9,21.0,00.0,31.1,23.5,07.7,0000.0,0004.57,0001.49,0001.07
2021-12-12 00:44:00,,0820.2,4.99,0.00,21.9,21.0,00.0,31.1,23.5,07.7,0000.0,0004.35,0001.50,0001.07
2021-12-12 00:45:00,,0820.2,5.01,0.00,21.9,21.0,00.0,31.1,23.5,07.7,0000.0,0003.45,0001.47,0001.07
2021-12-12 00:46:00,,0820.4,5.00,0.00,21.9,21.0,00.0,31.0,23.4,07.7,0000.0,0003.84,0001.50,0001.07
2021-12-12 00:47:00,,0820.4,4.98,0.00,21.9,21.3,00.0,31.1,23.5,07.7,0000.0,0003.86,0001.52,0001.08
2021-12-12 00:48:00,,0820.4,5.00,0.00,22.0,22.2,00.0,31.1,23.9,07.7,0000.0,0003.91,0001.52,0001.07
2021-12-12 00:49:00,,0820.5,5.00,0.00,22.2,22.9,00.0,31.1,24.2,07.6,0000.0,0004.62,0001.52,0001.08
2021-12-12 00:50:00,,0820.5,5.01,0.00,22.3,22.9,00.0,31.2,24.3,07.5,0000.0,0004.61,0001.49,0001.07
2021-12-12 00:51:00,,0820.5,5.00,0.00,22.3,22.7,00.0,31.2,24.2,07.6,0000.0,0004.70,0001.49,0001.07
2021-12-12 00:52:00,,0820.5,5.00,0.00,22.3,22.5,00.0,31.2,24.2,07.6,0000.0,0004.72,0001.49,0001.07
2021-12-12 00:53:00,,0820.5,5.01,0.00,22.3,22.3,00.0,31.2,24.1,07.6,0000.0,0004.73,0001.50,0001.08
2021-12-12 00:54:00,,0820.6,4.99,0.00,22.3,22.1,00.0,31.2,24.1,07.5,0000.0,0003.86,0001.48,0001.09
2021-12-12 00:55:00,,0820.6,5.01,0.00,22.3,22.0,00.0,31.2,24.0,07.6,0000.0,0004.47,0001.49,0001.09
2021-12-12 00:56:00,,0820.6,5.00,0.00,22.3,21.9,00.0,31.2,24.0,07.7,0000.0,0005.28,0001.51,0001.10
2021-12-12 00:57:00,,0820.6,5.00,0.00,22.3,21.8,00.0,31.2,24.0,07.8,0000.0,0005.11,0001.50,0001.11
2021-12-12 00:58:00,,0820.6,4.99,0.00,22.3,21.7,00.0,31.3,24.0,07.9,0000.0,0005.31,0001.48,0001.12
2021-12-12 00:59:00,,0820.6,5.00,0.00,22.3,21.7,00.0,31.3,23.9,07.9,0000.0,0005.30,0001.50,0001.12
